Weather History for OAKN - February, 2013

Change the Weather History Date:

Wednesday, February 20, 2013

  Actual Average Record
Temperature  
Mean Temperature 58 °F -  
Max Temperature 69 °F - - ()
Min Temperature 48 °F - - ()
Degree Days  
Heating Degree Days 6    
Growing Degree Days 8 (Base 50)    
Moisture  
Dew Point 38 °F    
Average Humidity 46    
Maximum Humidity 71    
Minimum Humidity 28    
Precipitation  
Precipitation 0.00 in - - ()
Sea Level Pressure  
Sea Level Pressure 29.91 in    
Wind  
Wind Speed 8 mph ()    
Max Wind Speed 17 mph    
Max Gust Speed 26 mph    
Visibility 5.9 miles    
Events Rain    
T = Trace of Precipitation, MM = Missing Value Source: Averaged Metar Reports

Daily Weather History Graph

Daily Weather History Graph

Search for Another Location

Airport or City:

Trip Planner

Search our weather history database for the weather conditions in past years. The results will help you decide how hot, cold, wet, or windy it might be!

Date:

Astronomy

Feb. 20, 2013 Rise Set
Actual Time 6:43 AM AFT 5:57 PM AFT
Civil Twilight 6:18 AM AFT 6:22 PM AFT
Nautical Twilight 5:50 AM AFT 6:50 PM AFT
Astronomical Twilight 5:22 AM AFT 7:18 PM AFT
Moon 1:08 PM AFT (2/20) 2:32 AM AFT (2/20)
Length of Visible Light 12h 03m
Length of Day
11h 14m
Waxing Gibbous, 72% of the Moon is Illuminated
Feb 20
Waxing Gibbous
Feb 26
Full
Mar 5
Last Quarter
Mar 12
New
Mar 19
First Quarter

Hourly Weather History & Observations

Time (AFT) Temp. Dew Point Humidity Pressure Visibility Wind Dir Wind Speed Gust Speed Precip Events Conditions
12:20 AM 55.4 °F 41.0 °F 58% 29.96 in 6.2 mi SE 6.9 mph - N/A   Scattered Clouds
1:20 AM 55.4 °F 42.8 °F 63% 29.96 in 6.2 mi East 4.6 mph - N/A   Clear
2:20 AM 53.6 °F 41.0 °F 62% 29.97 in 6.2 mi NE 6.9 mph - N/A   Clear
3:20 AM 50.0 °F 41.0 °F 71% 29.99 in 6.2 mi NE 6.9 mph - N/A   Clear
5:20 AM 50.0 °F 37.4 °F 62% 30.00 in 6.2 mi ENE 11.5 mph - N/A   Clear
6:20 AM 48.2 °F 37.4 °F 66% 30.01 in 6.2 mi NE 13.8 mph - N/A   Partly Cloudy
7:20 AM 48.2 °F 37.4 °F 66% 30.03 in 6.2 mi NE 11.5 mph 17.3 mph N/A   Clear
8:20 AM 53.6 °F 37.4 °F 54% 30.03 in 6.2 mi NE 17.3 mph 23.0 mph N/A   Clear
9:20 AM 59.0 °F 37.4 °F 45% 30.01 in 6.2 mi ENE 11.5 mph 17.3 mph N/A   Partly Cloudy
10:20 AM 64.4 °F 35.6 °F 34% 29.97 in 6.2 mi ENE 11.5 mph 23.0 mph N/A   Scattered Clouds
11:20 AM 66.2 °F 35.6 °F 32% 29.94 in 6.2 mi ENE 9.2 mph 26.5 mph N/A   Mostly Cloudy
12:20 PM 68.0 °F 35.6 °F 30% 29.90 in 6.2 mi SSE 5.8 mph - N/A   Mostly Cloudy
1:20 PM 69.8 °F 35.6 °F 28% 29.86 in 6.2 mi SE 10.4 mph - N/A   Mostly Cloudy
2:20 PM 69.8 °F 35.6 °F 28% 29.83 in 6.2 mi ESE 3.5 mph - N/A   Overcast
3:20 PM 69.8 °F 37.4 °F 31% 29.82 in 6.2 mi ESE 8.1 mph - N/A   Overcast
4:20 PM 69.8 °F 35.6 °F 28% 29.79 in 6.2 mi South 6.9 mph - N/A   Mostly Cloudy
5:20 PM 68.0 °F 35.6 °F 30% 29.80 in 6.2 mi SSE 6.9 mph - N/A   Overcast
6:20 PM 66.2 °F 35.6 °F 32% 29.83 in 5.6 mi SSW 9.2 mph - N/A   Haze
7:20 PM 64.4 °F 35.6 °F 34% 29.85 in 5.6 mi South 11.5 mph 17.3 mph N/A   Haze
7:32 PM 64.4 °F 35.6 °F 34% 29.85 in 1.2 mi SSE 13.8 mph 20.7 mph N/A   Widespread Dust
8:20 PM 60.8 °F 39.2 °F 45% 29.86 in 5.6 mi SE 9.2 mph 17.3 mph N/A   Haze
9:20 PM 60.8 °F 42.8 °F 52% 29.90 in - ENE 11.5 mph 16.1 mph N/A   Mostly Cloudy
9:51 PM 57.2 °F 41.0 °F 55% 29.90 in 6.2 mi NE 17.3 mph 24.2 mph N/A   Mostly Cloudy
10:20 PM 57.2 °F 39.2 °F 51% 29.90 in 6.2 mi NE 17.3 mph 24.2 mph N/A   Mostly Cloudy
11:20 PM 57.2 °F 44.6 °F 63% 29.91 in - SSE 9.2 mph 15.0 mph N/A Rain Light Rain